TimeEDT,TemperatureF,Dew PointF,Humidity,Sea Level PressureIn,VisibilityMPH,Wind Direction,Wind SpeedMPH,Gust SpeedMPH,PrecipitationIn,Events,Conditions,WindDirDegrees,DateUTC
12:03 AM,64.4,64.4,100,29.91,4.0,SSW,3.5,-,N/A,,Scattered Clouds,210,2013-06-19 04:03:00
12:39 AM,62.6,62.6,100,29.92,1.8,Calm,Calm,-,N/A,,Scattered Clouds,0,2013-06-19 04:39:00
12:42 AM,62.6,62.6,100,29.92,0.8,Calm,Calm,-,N/A,,Mist,0,2013-06-19 04:42:00
12:53 AM,63.0,62.1,97,29.90,1.0,Calm,Calm,-,N/A,,Mist,0,2013-06-19 04:53:00
12:55 AM,62.6,62.6,100,29.91,2.0,Calm,Calm,-,N/A,,Scattered Clouds,0,2013-06-19 04:55:00
1:03 AM,62.6,62.6,100,29.91,6.0,West,3.5,-,N/A,,Partly Cloudy,280,2013-06-19 05:03:00
1:53 AM,63.0,61.0,93,29.90,10.0,WSW,3.5,-,N/A,,Mostly Cloudy,250,2013-06-19 05:53:00
2:53 AM,62.1,60.1,93,29.90,9.0,West,3.5,-,N/A,,Mostly Cloudy,280,2013-06-19 06:53:00
3:53 AM,62.1,60.1,93,29.90,6.0,NNW,3.5,-,N/A,,Partly Cloudy,340,2013-06-19 07:53:00
4:18 AM,62.6,60.8,94,29.92,5.0,NE,3.5,-,N/A,,Partly Cloudy,40,2013-06-19 08:18:00
4:24 AM,62.6,60.8,94,29.92,1.5,Calm,Calm,-,N/A,,Scattered Clouds,0,2013-06-19 08:24:00
4:26 AM,62.6,60.8,94,29.92,0.8,Calm,Calm,-,N/A,,Mist,0,2013-06-19 08:26:00
4:53 AM,61.0,60.1,97,29.91,0.8,Calm,Calm,-,N/A,,Mist,0,2013-06-19 08:53:00
5:14 AM,60.8,60.8,100,29.93,1.2,Calm,Calm,-,N/A,,Scattered Clouds,0,2013-06-19 09:14:00
5:30 AM,60.8,59.0,94,29.93,1.0,Calm,Calm,-,N/A,,Mist,0,2013-06-19 09:30:00
5:36 AM,60.8,60.8,100,29.93,2.0,Calm,Calm,-,N/A,,Clear,0,2013-06-19 09:36:00
5:44 AM,60.8,60.8,100,29.93,9.0,Calm,Calm,-,N/A,,Clear,0,2013-06-19 09:44:00
5:53 AM,61.0,60.1,97,29.93,7.0,Calm,Calm,-,N/A,,Clear,0,2013-06-19 09:53:00
6:53 AM,62.1,62.1,100,29.95,10.0,Calm,Calm,-,N/A,,Clear,0,2013-06-19 10:53:00
7:53 AM,66.0,62.1,87,29.97,10.0,Calm,Calm,-,N/A,,Clear,0,2013-06-19 11:53:00
8:45 AM,66.2,62.6,88,30.02,9.0,East,6.9,-,N/A,,Mostly Cloudy,80,2013-06-19 12:45:00
8:53 AM,66.0,63.0,90,30.01,4.0,ENE,6.9,-,N/A,,Mostly Cloudy,70,2013-06-19 12:53:00
9:53 AM,69.1,64.0,84,30.04,4.0,ENE,4.6,-,N/A,,Haze,70,2013-06-19 13:53:00
10:53 AM,69.1,62.1,78,30.05,6.0,NE,8.1,-,N/A,,Haze,50,2013-06-19 14:53:00
11:53 AM,72.0,63.0,73,30.06,10.0,ENE,6.9,-,N/A,,Mostly Cloudy,70,2013-06-19 15:53:00
12:27 PM,71.6,60.8,69,30.08,10.0,NE,8.1,-,N/A,,Mostly Cloudy,40,2013-06-19 16:27:00
12:53 PM,72.0,62.1,71,30.07,10.0,NE,6.9,-,N/A,,Mostly Cloudy,50,2013-06-19 16:53:00
1:53 PM,73.0,62.1,68,30.07,10.0,ESE,4.6,-,N/A,,Overcast,110,2013-06-19 17:53:00
2:20 PM,73.4,62.6,69,30.08,10.0,SE,6.9,-,N/A,,Mostly Cloudy,140,2013-06-19 18:20:00
2:53 PM,73.9,62.1,66,30.06,10.0,SE,5.8,-,N/A,,Mostly Cloudy,130,2013-06-19 18:53:00
3:00 PM,75.2,62.6,65,30.07,10.0,ENE,9.2,-,N/A,,Mostly Cloudy,70,2013-06-19 19:00:00
3:53 PM,73.0,62.1,68,30.06,10.0,ENE,10.4,-,N/A,,Overcast,60,2013-06-19 19:53:00
4:53 PM,75.0,62.1,64,30.06,10.0,NE,6.9,-,N/A,,Mostly Cloudy,50,2013-06-19 20:53:00
8:53 PM,71.1,63.0,75,30.09,10.0,SE,3.5,-,N/A,,Mostly Cloudy,140,2013-06-20 00:53:00
9:09 PM,69.8,64.4,83,30.12,10.0,Calm,Calm,-,N/A,,Mostly Cloudy,0,2013-06-20 01:09:00
9:46 PM,71.6,64.4,78,30.13,10.0,SSE,3.5,-,N/A,,Overcast,150,2013-06-20 01:46:00
9:53 PM,71.1,64.0,78,30.12,10.0,Calm,Calm,-,N/A,,Overcast,0,2013-06-20 01:53:00
10:53 PM,68.0,64.0,87,30.13,10.0,Calm,Calm,-,N/A,,Clear,0,2013-06-20 02:53:00
11:53 PM,66.9,64.9,93,30.15,8.0,Calm,Calm,-,N/A,,Overcast,0,2013-06-20 03:53:00